Regional Weather Roundup
Issued by NWS

Home | Current Version | Previous Version | Graphics & Text | Print | Product List | Glossary On
Versions: 1 2 3 4 5 6 7 8 9 10 11 12 13 14 15 16 17 18 19 20 21 22 23 24 25 26 27 28 29 30 31 32 33 34 35 36 37 38 39 40 41 42 43 44 45 46 47 48 49 50
470
ASUS43 KIND 211600
RWRIN

WEATHER ROUNDUP FOR INDIANA
NATIONAL WEATHER SERVICE INDIANAPOLIS IN
1200 PM EDT THU SEP 21 2017

NOTE: "FAIR" INDICATES FEW OR NO CLOUDS BELOW 12,000 FEET WITH NO
SIGNIFICANT WEATHER AND/OR OBSTRUCTIONS TO VISIBILITY.

* - STATION DOES NOT REPORT WEATHER SUCH AS PRECIPITATION OR FOG.

+ - STATION NOT QUALITY CONTROLLED BY THE NATIONAL WEATHER SERVICE.
    USE DATA WITH CAUTION...ESPECIALLY DEWPOINT AND RELATIVE
    HUMIDITY OBSERVATIONS.

INZ001>003-010>013-019-020-211700-
NORTHWEST INDIANA

CITY           SKY/WX    TMP DP  RH WIND       PRES   REMARKS
GARY /AIRPORT/ MOSUNNY   84  68  58 S3        30.05S
KNOX *+        SUNNY     82  72  69 S5        30.05F

$$

LMZ046-743>745-211700-
SOUTHERN LAKE MICHIGAN

STATION/POSITION TIME  TEMP    WIND        PRES    WAVE
                       AIR SEA DIR/SP/G            HT
                 (UTC) (F)     (DEG/KT/KT) (MB)    (FT)
BURNS HARBOR     1540   82     200/  6/  8 1017.3S
MICHIGAN CITY    1530   80     170/  6/  7   N/A
5NW MICH CITY    1550   76 70  160/  4/  4   N/A     0

$$

INZ004-005-014>016-021>024-211700-
NORTH CENTRAL INDIANA

CITY           SKY/WX    TMP DP  RH WIND       PRES   REMARKS
ELKHART        SUNNY     82  72  69 S7        30.07R
GOSHEN         SUNNY     83  70  64 S8        30.07S
SOUTH BEND     MOSUNNY   81  73  76 S6        30.06S
WARSAW +       SUNNY     82  72  69 SW5       30.08S

$$

INZ006>009-017-018-025>027-211700-
NORTHEAST INDIANA

CITY           SKY/WX    TMP DP  RH WIND       PRES   REMARKS
AUBURN +       SUNNY     84  70  61 S3        30.09S
FORT WAYNE     MOSUNNY   85  72  65 SW7       30.09S
KENDALLVILLE + SUNNY     83  74  72 SW5       30.10R

$$

INZ028-029-035-036-043>045-051>053-211700-
WEST CENTRAL INDIANA

CITY           SKY/WX    TMP DP  RH WIND       PRES   REMARKS
LAFAYETTE      SUNNY     83  73  72 CALM      30.06F
TERRE HAUTE    SUNNY     87  72  60 SE8       30.08F

$$

INZ030>032-037>040-046>048-054>057-064-065-211700-
CENTRAL INDIANA

CITY           SKY/WX    TMP DP  RH WIND       PRES   REMARKS
ANDERSON       SUNNY     84  72  65 S12       30.10
COLUMBUS       SUNNY     82  72  69 SW6       30.11F
GREENWOOD *+   SUNNY     87  75  67 SW3       30.10F HX  97
INDIANAPOLIS   MOSUNNY   85  71  63 SW7       30.09F
-EAGLE CREEK   SUNNY     85  70  60 S5        30.09S
KOKOMO +       SUNNY     85  74  69 SW7       30.10S
MT COMFORT *+    N/A    N/A N/A N/A MISG        N/A
SHELBYVILLE    SUNNY     85  71  63 S5        30.10F

$$

INZ033-034-041-042-049-050-058-059-211700-
EAST CENTRAL INDIANA

CITY           SKY/WX    TMP DP  RH WIND       PRES   REMARKS
MUNCIE         SUNNY     88  71  57 W8        30.10S
RICHMOND +     SUNNY     82  70  65 W6        30.13S

$$

INZ060-061-067>069-081>083-085>088-211700-
SOUTHWEST INDIANA

CITY           SKY/WX    TMP DP  RH WIND       PRES   REMARKS
EVANSVILLE     SUNNY     85  72  65 CALM      30.09F
HUNTINGBURG +    N/A    N/A N/A N/A VRB3      30.10

$$

INZ062-063-066-070>080-084-089>092-211700-
SOUTH CENTRAL AND SOUTHEAST INDIANA

CITY           SKY/WX    TMP DP  RH WIND       PRES   REMARKS
BLOOMINGTON    MOSUNNY   86  69  56 CALM      30.11S
MADISON *+     SUNNY     82  70  65 CALM      30.13F
SEYMOUR +      PTSUNNY   86  72  62 CALM      30.10F

$$





USA.gov is the U.S. government's official web portal to all federal, state and local government web resources and services.